EW6143 Weather Reports


time (UTC)temp
F
wind
direction
speed
knots
gust
knots
rain 1hr
in
rain 24hr
in
rain mn
in
humidity
%
barometer
mb
20260507174534 70 220 3.5 9.6 0.00 0.00 0.00 54 1018.2
20260507173034 69 202 5.2 10.4 0.00 0.00 0.00 52 1018.5
20260507171531 70 140 1.7 7.8 0.00 0.00 0.00 54 1019.0
20260507170028 68 190 3.5 7.0 0.00 0.00 0.00 56 1019.3
20260507164528 67 148 2.6 7.8 0.00 0.00 0.00 57 1019.6
20260507163031 67 175 3.5 7.8 0.00 0.00 0.00 58 1019.9
20260507161527 67 173 3.5 7.8 0.00 0.00 0.00 58 1019.8
20260507160033 67 166 2.6 7.0 0.00 0.00 0.00 58 1019.8
20260507154530 67 173 0.9 7.8 0.00 0.10 0.00 60 1019.9
20260507153031 65 211 2.6 7.0 0.00 0.10 0.00 62 1019.9
20260507151527 64 0 2.6 6.1 0.00 0.10 0.00 64 1020.1
20260507150029 63 156 2.6 6.1 0.00 0.10 0.00 65 1020.2
20260507144528 62 142 2.6 6.1 0.00 0.10 0.00 68 1020.3
20260507143053 60 0 0.9 5.2 0.00 0.10 0.00 71 1020.2
20260507141543 59 144 1.7 5.2 0.00 0.10 0.00 75 1020.4
20260507140028 58 153 0.9 4.3 0.00 0.10 0.00 81 1020.7
20260507134529 56 113 0.9 3.5 0.00 0.10 0.00 83 1020.7
20260507133034 55 0 0.0 2.6 0.00 0.10 0.00 85 1020.7
20260507131527 54 0 0.0 4.3 0.00 0.10 0.00 86 1020.6
20260507130038 54 84 0.0 2.6 0.00 0.10 0.00 86 1020.6
20260507124527 53 0 0.0 1.7 0.00 0.10 0.00 86 1020.3
20260507123026 52 0 0.0 0.9 0.00 0.10 0.00 85 1020.4
20260507121526 51 0 0.0 0.0 0.00 0.10 0.00 85 1020.2
20260507120029 51 0 0.0 0.0 0.00 0.10 0.00 84 1019.9
20260507114531 51 0 0.0 0.0 0.00 0.10 0.00 84 1019.9
20260507113028 51 0 0.0 0.0 0.00 0.10 0.00 84 1019.6
20260507111528 52 0 0.0 3.5 0.00 0.10 0.00 84 1019.6
20260507083028 55 188 1.7 6.1 0.00 0.10 0.00 79 1018.0
20260507081528 55 169 1.7 7.0 0.00 0.10 0.00 79 1017.8
20260507080028 55 141 2.6 8.7 0.00 0.10 0.00 80 1017.6
20260507074528 55 192 2.6 7.0 0.00 0.10 0.00 80 1017.5
20260507073031 56 172 3.5 7.8 0.00 0.10 0.00 79 1017.4
20260507071532 56 188 4.3 7.8 0.00 0.10 0.00 79 1017.6
20260507070032 56 172 3.5 6.1 0.00 0.10 0.00 79 1017.6
20260507064544 56 178 1.7 7.8 0.00 0.10 0.00 78 1017.4
20260507063030 56 187 2.6 5.2 0.00 0.10 0.00 78 1017.2
20260507061530 57 154 2.6 7.0 0.00 0.10 0.00 77 1017.3
20260507060028 57 176 3.5 7.8 0.00 0.10 0.00 76 1017.0
20260507054529 57 213 4.3 7.8 0.00 0.10 0.00 76 1017.2
20260507053028 58 204 3.5 7.8 0.00 0.10 0.00 75 1017.2
20260507051528 58 186 4.3 12.2 0.00 0.10 0.00 75 1017.3
20260507050038 58 202 3.5 7.8 0.00 0.10 0.00 76 1017.3
20260507044527 59 179 3.5 9.6 0.00 0.10 0.10 75 1017.2
20260507043027 59 160 5.2 10.4 0.00 0.10 0.10 75 1017.5
20260507041530 59 169 3.5 10.4 0.00 0.10 0.10 75 1017.7
20260507040029 59 139 5.2 9.6 0.00 0.10 0.10 75 1017.7
20260507034529 59 124 6.1 10.4 0.00 0.10 0.10 75 1017.7
20260507033028 59 147 4.3 10.4 0.00 0.10 0.10 75 1017.6
20260507031527 59 182 3.5 13.0 0.00 0.10 0.10 75 1017.5
20260507030030 59 175 5.2 12.2 0.00 0.10 0.10 75 1017.2
20260507024529 59 133 2.6 8.7 0.00 0.10 0.10 76 1017.0
20260507023026 59 191 4.3 10.4 0.00 0.10 0.10 76 1016.7
20260507021526 59 165 2.6 9.6 0.00 0.10 0.10 76 1016.5
20260507020031 59 165 5.2 9.6 0.00 0.10 0.10 76 1016.1
20260507014527 59 123 6.1 18.2 0.00 0.10 0.10 76 1016.0
20260507013027 59 155 4.3 10.4 0.00 0.10 0.10 77 1015.7
20260507011531 59 163 5.2 16.5 0.00 0.10 0.10 77 1015.4
20260507010038 59 204 3.5 10.4 0.00 0.10 0.10 77 1015.3
20260507004532 59 163 3.5 10.4 0.00 0.10 0.10 77 1015.2
20260507003028 59 146 5.2 13.0 0.00 0.10 0.10 77 1015.0
20260507000029 59 144 6.1 12.2 0.00 0.10 0.10 76 1014.7
20260506234530 59 223 4.3 9.6 0.00 0.10 0.10 76 1014.6
20260506233030 59 175 5.2 12.2 0.00 0.10 0.10 77 1014.6
20260506231528 59 211 4.3 11.3 0.00 0.10 0.10 77 1014.3
20260506230032 60 153 7.0 13.9 0.00 0.10 0.10 75 1013.9
20260506224535 59 111 2.6 10.4 0.00 0.10 0.10 75 1014.5
20260506223027 59 165 5.2 10.4 0.00 0.10 0.10 75 1014.3
20260506221529 59 162 5.2 10.4 0.00 0.10 0.10 75 1013.9
20260506220037 59 188 5.2 11.3 0.00 0.10 0.10 74 1013.9
20260506214528 60 144 5.2 11.3 0.00 0.10 0.10 74 1013.9
20260506213029 60 172 6.1 10.4 0.00 0.10 0.10 73 1013.6
20260506211534 61 88 3.5 8.7 0.00 0.10 0.10 72 1014.0
20260506210033 61 152 3.5 7.8 0.00 0.10 0.10 71 1013.9
20260506204556 61 157 2.6 10.4 0.00 0.10 0.10 74 1014.2
20260506203026 60 161 3.5 10.4 0.00 0.10 0.10 74 1014.1
20260506201536 59 141 5.2 8.7 0.00 0.10 0.10 75 1014.9
20260506200030 59 131 2.6 10.4 0.00 0.10 0.10 77 1014.6
20260506194528 58 70 2.6 7.8 0.00 0.10 0.10 79 1014.6
20260506193028 57 80 1.7 5.2 0.00 0.10 0.10 79 1014.9
20260506191528 57 89 2.6 7.0 0.00 0.10 0.10 78 1015.2
20260506190031 57 142 2.6 7.8 0.00 0.10 0.10 79 1015.0
20260506184527 57 130 4.3 10.4 0.00 0.10 0.10 79 1014.7
20260506183025 56 139 4.3 8.7 0.00 0.10 0.10 80 1013.8
20260506181528 56 150 7.0 13.9 0.00 0.10 0.10 81 1013.3
20260506180033 55 178 5.2 12.2 0.00 0.10 0.10 82 1013.3